This demonstration page uses our WeatherBlox Daily Observations layout. Learn more.

Left ArrowRight Arrow

40.92945, -100.16068

Hourly Observations for November 9, 2018

Temp ( °F °C ) Dew Point ( °F °C ) Humidity (%) Winds ( mph kmh ) Pressure ( in mb ) Visibility ( mi km ) Precip ( " mm )
12:15 am 00:15 Partly Cloudy 19 -7 17 -8.5 89 89 WSW 3 6 30.45 1031 10 16.0934 0 0
12:35 am 00:35 Mostly Cloudy 20 -6.7 17 -8.4 88 88 WSW 3 6 30.45 1031 10 16.0934 0 0
12:55 am 00:55 Partly Cloudy 19 -7 16 -8.7 88 88 WSW 7 11 30.45 1031 10 16.0934 0 0
1:15 am 01:15 Mostly Cloudy 21 -6.2 18 -8 87 87 W 6 9 30.45 1031 10 16.0934 0 0
1:35 am 01:35 Partly Cloudy 21 -6.3 17 -8.3 86 86 W 7 11 30.45 1031 10 16.0934 0 0
1:55 am 01:55 Partly Cloudy 20 -6.8 16 -8.8 86 86 W 5 7 30.45 1031 10 16.0934 0 0
2:15 am 02:15 Cloudy 23 -4.9 19 -7 85 85 WSW 6 9 30.42 1030 10 16.0934 0 0
2:35 am 02:35 Cloudy 24 -4.3 20 -6.6 84 84 W 7 11 30.42 1030 10 16.0934 0 0
2:55 am 02:55 Cloudy 24 -4.5 20 -6.8 84 84 NNW 16 26 30.45 1031 10 16.0934 0 0
3:10 am 03:10 Cloudy 24 -4.3 20 -6.6 84 84 NW 10 17 30.45 1031 10 16.0934 0 0
3:35 am 03:35 Partly Cloudy 25 -4.1 20 -6.7 82 82 W 12 19 30.45 1031 10 16.0934 0 0
3:55 am 03:55 Mostly Cloudy 25 -4 20 -6.5 83 83 WNW 12 19 30.45 1031 10 16.0934 0 0
4:15 am 04:15 Cloudy 25 -3.8 20 -6.4 82 82 WNW 10 17 30.45 1031 10 16.0934 0 0
4:35 am 04:35 Cloudy 25 -4 20 -6.5 83 83 WNW 8 13 30.45 1031 10 16.0934 0 0
4:55 am 04:55 Mostly Cloudy 25 -4.1 20 -6.6 83 83 NW 13 20 30.48 1032 10 16.0934 0 0
5:15 am 05:15 Cloudy 28 -2.5 21 -6.1 77 77 NNW 28 44 30.48 1032 10 16.0934 0 0
5:35 am 05:35 Cloudy 25 -4 14 -10.2 62 62 NNW 20 31 30.5 1033 10 16.0934 0 0
5:55 am 05:55 Mostly Cloudy 23 -4.9 13 -10.6 65 65 N 23 37 30.56 1035 10 16.0934 0 0
6:15 am 06:15 Partly Cloudy 22 -5.8 12 -11 67 67 NNW 20 31 30.56 1035 10 16.0934 0 0
6:35 am 06:35 Clear 21 -6.3 12 -11.2 69 69 NNW 17 28 30.56 1035 10 16.0934 0 0
6:55 am 06:55 Clear 20 -6.9 11 -11.5 70 70 NNW 18 30 30.56 1035 10 16.0934 0 0
7:15 am 07:15 Clear 18 -7.6 11 -11.5 74 74 NNW 18 30 30.59 1036 10 16.0934 0 0
7:35 am 07:35 Partly Cloudy 18 -7.7 11 -11.6 74 74 NNW 18 30 30.62 1037 10 16.0934 0 0
7:55 am 07:55 Mostly Cloudy 18 -7.7 11 -11.5 74 74 NNW 16 26 30.62 1037 10 16.0934 0 0
8:15 am 08:15 Partly Cloudy 18 -7.7 11 -11.6 74 74 NNW 18 30 30.62 1037 10 16.0934 0 0
8:35 am 08:35 Mostly Cloudy 18 -7.7 11 -11.4 75 75 NNW 13 20 30.65 1038 10 16.0934 0 0
8:55 am 08:55 Cloudy 18 -7.7 11 -11.8 73 73 NNW 18 30 30.65 1038 10 16.0934 0 0
9:15 am 09:15 Mostly Cloudy 18 -7.7 9 -12.7 68 68 NNW 24 39 30.68 1039 10 16.0934 0 0
9:35 am 09:35 Partly Cloudy 19 -7.4 8 -13.5 62 62 N 24 39 30.68 1039 10 16.0934 0 0
9:55 am 09:55 Sunny 19 -7.3 7 -13.7 61 61 N 25 41 30.68 1039 10 16.0934 0 0
10:15 am 10:15 Sunny 19 -7.1 8 -13.3 62 62 N 16 26 30.68 1039 10 16.0934 0 0
10:35 am 10:35 Partly Cloudy 20 -6.9 9 -12.7 64 64 N 21 33 30.68 1039 10 16.0934 0 0
10:55 am 10:55 Partly Cloudy 19 -7 9 -12.9 63 63 N 20 31 30.68 1039 10 16.0934 0 0
11:15 am 11:15 Partly Cloudy 19 -7 8 -13.2 62 62 NNW 18 30 30.68 1039 10 16.0934 0 0
11:35 am 11:35 Sunny 20 -6.8 8 -13.2 61 61 N 18 30 30.68 1039 10 16.0934 0 0
11:55 am 11:55 Sunny 20 -6.6 8 -13.1 60 60 NNW 18 30 30.65 1038 10 16.0934 0 0
12:15 pm 12:15 Partly Cloudy 21 -6.3 9 -12.9 60 60 N 15 24 30.65 1038 10 16.0934 0 0
12:35 pm 12:35 Partly Cloudy 21 -6.1 9 -12.7 60 60 N 17 28 30.65 1038 10 16.0934 0 0
12:55 pm 12:55 Sunny 21 -6 7 -13.7 55 55 NNW 20 31 30.65 1038 10 16.0934 0 0
1:15 pm 13:15 Sunny 22 -5.8 7 -13.7 54 54 N 16 26 30.65 1038 10 16.0934 0 0
1:35 pm 13:35 Sunny 22 -5.7 7 -13.9 53 53 NNW 14 22 30.62 1037 10 16.0934 0 0
1:55 pm 13:55 Sunny 22 -5.5 6 -14.2 51 51 NNW 10 17 30.62 1037 10 16.0934 0 0
2:15 pm 14:15 Sunny 23 -5.2 8 -13.6 52 52 NNW 13 20 30.59 1036 10 16.0934 0 0
2:35 pm 14:35 Sunny 23 -5 7 -13.9 50 50 NNW 14 22 30.59 1036 10 16.0934 0 0
2:55 pm 14:55 Sunny 23 -5 6 -14.2 49 49 NNW 9 15 30.59 1036 10 16.0934 0 0
3:15 pm 15:15 Sunny 23 -4.9 7 -13.9 50 50 NNW 10 17 30.59 1036 10 16.0934 0 0
3:35 pm 15:35 Sunny 23 -5 6 -14.6 47 47 NNW 10 17 30.59 1036 10 16.0934 0 0
3:55 pm 15:55 Sunny 23 -5.1 6 -14.6 48 48 NNW 10 17 30.59 1036 10 16.0934 0 0
4:15 pm 16:15 Sunny 22 -5.3 5 -15.1 46 46 N 9 15 30.59 1036 10 16.0934 0 0
4:35 pm 16:35 Sunny 22 -5.5 4 -15.3 46 46 N 9 15 30.56 1035 10 16.0934 0 0
4:55 pm 16:55 Sunny 21 -6.1 6 -14.6 51 51 NNW 6 9 30.59 1036 10 16.0934 0 0
5:15 pm 17:15 Sunny 20 -6.9 6 -14.6 55 55 N 5 7 30.56 1035 10 16.0934 0 0
5:35 pm 17:35 Clear 17 -8.1 6 -14.2 62 62 NNE 3 6 30.59 1036 10 16.0934 0 0
5:55 pm 17:55 Clear 17 -8.3 6 -14.4 62 62 NNE 3 6 30.59 1036 10 16.0934 0 0
6:15 pm 18:15 Clear 16 -9 5 -14.8 63 63 NE 5 7 30.59 1036 10 16.0934 0 0
6:35 pm 18:35 Clear 15 -9.4 5 -15.1 64 64 E 5 7 30.59 1036 10 16.0934 0 0
6:55 pm 18:55 Clear 16 -9 4 -15.6 59 59 ESE 3 6 30.59 1036 10 16.0934 0 0
7:15 pm 19:15 Clear 15 -9.7 4 -15.4 63 63 SE 5 7 30.59 1036 10 16.0934 0 0
7:35 pm 19:35 Clear 14 -9.8 4 -15.3 65 65 E 6 9 30.59 1036 10 16.0934 0 0
7:55 pm 19:55 Clear 15 -9.5 5 -15.1 64 64 ESE 6 9 30.59 1036 10 16.0934 0 0
8:15 pm 20:15 Clear 15 -9.6 4 -15.3 64 64 ESE 6 9 30.59 1036 10 16.0934 0 0
8:35 pm 20:35 Clear 12 -11 5 -15.2 71 71 SSE 6 9 30.62 1037 10 16.0934 0 0
8:55 pm 20:55 Clear 11 -11.5 5 -15 76 76 SSE 5 7 30.62 1037 10 16.0934 0 0
9:15 pm 21:15 Clear 13 -10.5 6 -14.4 73 73 SE 7 11 30.59 1036 10 16.0934 0 0
9:35 pm 21:35 Clear 13 -10.8 5 -15 72 72 SSE 7 11 30.59 1036 10 16.0934 0 0
9:55 pm 21:55 Clear 13 -10.7 5 -14.8 72 72 SSE 7 11 30.59 1036 10 16.0934 0 0
10:15 pm 22:15 Clear 15 -9.6 6 -14.6 67 67 SE 5 7 30.56 1035 10 16.0934 0 0
10:35 pm 22:35 Clear 14 -10.1 6 -14.5 70 70 SSE 8 13 30.56 1035 10 16.0934 0 0
10:55 pm 22:55 Clear 13 -10.5 6 -14.5 73 73 SSE 8 13 30.59 1036 10 16.0934 0 0
11:15 pm 23:15 Clear 13 -10.5 6 -14.4 73 73 SSE 8 13 30.53 1034 10 16.0934 0 0
11:35 pm 23:35 Clear 13 -10.5 6 -14.2 75 75 SSE 10 17 30.53 1034 10 16.0934 0 0
11:55 pm 23:55 Clear 13 -10.5 6 -14.5 73 73 SSE 10 17 30.53 1034 10 16.0934 0 0

Powered by AerisWeather